CW4226 Weather Reports


Display with metric or nautical units.
time (UTC)temp
F
wind
direction
speed
MPH
gust
MPH
rain 1hr
in
rain 24hr
in
rain mn
in
humidity
%
barometer
mb
20260903015530 69 49 0.0 2.0 0.00 0.01 0.01 88 1013.4
20260903015026 69 269 0.0 4.0 0.00 0.01 0.01 88 1013.5
20260903014525 69 76 1.0 5.0 0.00 0.01 0.01 88 1013.8
20260903014507 69 248 1.0 3.0 0.00 0.01 0.01 88 1012.0
20260903014020 69 51 0.0 3.0 0.00 0.01 0.01 88 1014.1
20260903013519 69 178 1.0 2.0 0.00 0.01 0.01 88 1013.8
20260903013014 69 271 0.0 4.0 0.00 0.01 0.01 88 1014.1
20260903013007 69 261 1.0 3.0 0.00 0.01 0.01 88 1012.2
20260903012513 69 81 0.0 2.0 0.00 0.01 0.01 88 1014.0
20260903012012 69 58 1.0 2.0 0.00 0.01 0.01 88 1014.1
20260903011507 69 146 1.0 2.0 0.00 0.01 0.01 88 1014.3
20260903011002 69 262 0.0 3.0 0.00 0.01 0.01 88 1014.4
20260903010457 69 99 0.0 2.0 0.00 0.01 0.01 88 1014.2
20260903010006 69 294 0.0 3.0 0.00 0.01 0.01 88 1012.2
20260903005955 69 85 2.0 2.0 0.00 0.01 0.01 88 1013.9
20260903005450 69 263 0.0 3.0 0.00 0.01 0.01 88 1013.3
20260903004947 69 248 2.0 3.0 0.00 0.01 0.01 88 1013.2
20260903004506 69 292 0.0 3.0 0.00 0.01 0.01 87 1011.1
20260903004446 69 85 0.0 2.0 0.00 0.01 0.01 87 1012.9
20260903003943 69 41 1.0 3.0 0.00 0.01 0.01 87 1012.9
20260903003442 69 237 2.0 4.0 0.00 0.01 0.01 87 1013.0
20260903002938 69 219 1.0 3.0 0.00 0.01 0.01 87 1013.1
20260903002432 69 50 1.0 2.0 0.00 0.01 0.01 87 1013.5
20260903001932 69 254 2.0 2.0 0.00 0.01 0.01 87 1013.5
20260903001432 69 104 0.0 2.0 0.00 0.01 0.01 87 1013.7
20260903000932 69 314 2.0 2.0 0.00 0.01 0.01 87 1013.6
20260903000427 69 65 0.0 3.0 0.00 0.01 0.01 87 1013.4
20260903000007 70 19 1.0 5.0 0.00 0.01 0.01 87 1011.7
20260902235925 70 89 0.0 3.0 0.00 0.01 0.01 87 1013.4
20260902235421 70 129 0.0 4.0 0.00 0.01 0.01 87 1013.5
20260902234920 70 60 1.0 2.0 0.00 0.01 0.01 87 1013.5
20260902234507 70 137 0.0 5.0 0.00 0.01 0.01 88 1011.7
20260902234416 70 13 1.0 2.0 0.00 0.01 0.01 87 1013.6
20260902233915 70 77 1.0 5.0 0.00 0.01 0.01 87 1013.5
20260902233409 70 217 0.0 4.0 0.00 0.01 0.01 87 1013.5
20260902233007 70 244 2.0 6.0 0.00 0.01 0.01 88 1011.2
20260902232908 70 249 1.0 6.0 0.00 0.01 0.01 88 1012.9
20260902232403 70 229 1.0 4.0 0.00 0.01 0.01 88 1012.6
20260902231902 70 353 2.0 2.0 0.00 0.01 0.01 88 1012.8
20260902231508 70 306 1.0 3.0 0.00 0.01 0.01 88 1011.1
20260902231357 70 129 0.0 3.0 0.00 0.01 0.01 88 1013.0
20260902230852 70 292 1.0 2.0 0.00 0.01 0.01 88 1012.8
20260902230352 70 219 0.0 5.0 0.00 0.01 0.01 87 1013.0
20260902230008 71 246 1.0 3.0 0.00 0.01 0.01 87 1011.2
20260902225851 70 231 5.0 5.0 0.00 0.01 0.01 87 1012.9
20260902225347 70 19 0.0 3.0 0.00 0.01 0.01 87 1013.0
20260902224845 71 50 1.0 5.0 0.00 0.01 0.01 87 1013.2
20260902224340 71 44 0.0 2.0 0.00 0.01 0.01 86 1013.3
20260902223837 71 65 2.0 5.0 0.00 0.01 0.01 86 1013.1
20260902223337 71 14 2.0 2.0 0.00 0.01 0.01 86 1013.0
20260902223008 72 310 1.0 3.0 0.00 0.01 0.01 85 1011.3
20260902222837 71 32 1.0 2.0 0.00 0.01 0.01 86 1013.1
20260902222335 71 69 2.0 4.0 0.00 0.01 0.01 85 1013.0
20260902221830 72 307 1.0 3.0 0.00 0.01 0.01 85 1013.2
20260902221506 72 51 0.0 3.0 0.00 0.01 0.01 85 1011.4
20260902221329 72 29 3.0 3.0 0.00 0.01 0.01 85 1013.1
20260902220825 72 5 1.0 3.0 0.00 0.01 0.01 85 1013.2
20260902220324 72 343 0.0 2.0 0.00 0.01 0.01 85 1013.3
20260902220007 72 261 1.0 3.0 0.00 0.01 0.01 85 1011.7
20260902215821 72 8 0.0 2.0 0.00 0.01 0.01 85 1013.5
20260902215320 72 29 2.0 2.0 0.00 0.01 0.01 85 1013.4
20260902214816 72 240 3.0 4.0 0.00 0.01 0.01 85 1013.6
20260902214315 72 97 0.0 3.0 0.00 0.01 0.01 85 1013.4
20260902213811 72 267 0.0 2.0 0.00 0.01 0.01 85 1013.5
20260902213306 72 115 1.0 2.0 0.00 0.01 0.01 85 1013.7
20260902213007 72 245 1.0 3.0 0.00 0.01 0.01 86 1012.0
20260902212804 71 75 0.0 2.0 0.00 0.01 0.01 86 1014.0
20260902212305 71 70 0.0 3.0 0.00 0.01 0.01 85 1013.8
20260902211758 72 269 0.0 2.0 0.00 0.01 0.01 85 1013.7
20260902211506 72 13 1.0 3.0 0.00 0.01 0.01 85 1012.1
20260902211253 72 89 1.0 2.0 0.00 0.01 0.01 85 1013.6
20260902210753 72 348 1.0 2.0 0.00 0.01 0.01 85 1013.8
20260902210248 72 54 1.0 3.0 0.00 0.01 0.01 85 1013.8
20260902205746 72 236 0.0 3.0 0.00 0.01 0.01 85 1013.6
20260902205242 72 31 0.0 2.0 0.00 0.01 0.01 84 1013.5
20260902204737 72 34 0.0 2.0 0.00 0.01 0.01 85 1013.7
20260902204507 72 256 1.0 3.0 0.00 0.01 0.01 85 1011.7
20260902204232 72 250 3.0 3.0 0.00 0.01 0.01 86 1013.6
20260902203732 71 4 0.0 1.0 0.00 0.01 0.01 85 1013.6
20260902203228 72 250 0.0 2.0 0.00 0.01 0.01 85 1013.8
20260902203008 72 227 0.0 2.0 0.00 0.01 0.01 86 1012.1
20260902202728 72 102 0.0 2.0 0.00 0.01 0.01 86 1013.6
20260902202224 71 67 0.0 2.0 0.00 0.01 0.01 86 1013.5
20260902201721 71 66 1.0 3.0 0.00 0.01 0.01 86 1013.8
20260902201508 71 258 0.0 2.0 0.00 0.01 0.01 86 1012.3
20260902201219 71 256 0.0 3.0 0.00 0.01 0.01 86 1014.2
20260902200715 71 352 0.0 2.0 0.00 0.01 0.01 86 1014.1
20260902200211 71 62 0.0 2.0 0.00 0.01 0.01 86 1014.5
20260902200007 72 251 1.0 2.0 0.00 0.01 0.01 85 1012.8
20260902195706 72 61 1.0 3.0 0.00 0.01 0.01 84 1014.5
20260902195205 72 68 1.0 2.0 0.00 0.01 0.01 85 1014.5
20260902194704 72 66 2.0 2.0 0.00 0.01 0.01 84 1014.5
20260902194507 71 316 0.0 3.0 0.00 0.01 0.01 86 1012.8
20260902194200 72 305 1.0 2.0 0.00 0.01 0.01 84 1014.6
20260902193655 71 180 0.0 2.0 0.00 0.01 0.01 85 1014.5
20260902193151 71 260 0.0 3.0 0.00 0.01 0.01 85 1014.6
20260902193008 71 250 0.0 2.0 0.00 0.01 0.01 87 1012.8
20260902192649 71 193 0.0 3.0 0.00 0.01 0.01 87 1014.4
20260902192148 71 250 1.0 3.0 0.00 0.01 0.01 87 1014.4
20260902191643 71 241 2.0 2.0 0.00 0.01 0.01 87 1014.4
20260902191507 71 232 1.0 3.0 0.00 0.01 0.01 88 1012.8
20260902191143 71 205 0.0 2.0 0.00 0.01 0.01 87 1014.5
20260902190639 71 87 0.0 2.0 0.00 0.01 0.01 87 1014.4
20260902190134 71 309 2.0 3.0 0.00 0.01 0.01 87 1014.5
20260902190008 70 270 1.0 6.0 0.00 0.01 0.01 89 1012.8
20260902185629 70 43 1.0 2.0 0.00 0.01 0.01 88 1014.5
20260902185125 70 62 2.0 6.0 0.00 0.01 0.01 88 1014.3
20260902184620 70 291 2.0 3.0 0.00 0.01 0.01 88 1014.4
20260902184507 70 231 1.0 3.0 0.00 0.01 0.01 89 1012.7
20260902184115 70 286 2.0 2.0 0.00 0.01 0.01 88 1014.4
20260902183612 70 23 2.0 2.0 0.00 0.01 0.01 88 1014.4
20260902183108 70 0 0.0 2.0 0.00 0.01 0.01 88 1014.5
20260902183008 70 317 2.0 6.0 0.00 0.01 0.01 88 1012.9
20260902182604 70 99 0.0 3.0 0.00 0.01 0.01 89 1014.6
20260902182100 70 58 0.0 4.0 0.00 0.01 0.01 88 1014.4
20260902181556 70 24 4.0 4.0 0.00 0.01 0.01 88 1014.6
20260902181507 70 298 1.0 3.0 0.00 0.01 0.01 88 1013.0
20260902181055 70 70 1.0 2.0 0.00 0.01 0.01 88 1014.9
20260902180555 70 199 1.0 3.0 0.00 0.01 0.01 88 1015.2
20260902180051 70 312 0.0 2.0 0.00 0.01 0.01 88 1015.4
20260902180008 71 283 1.0 3.0 0.00 0.01 0.01 88 1013.5
20260902175551 70 84 0.0 2.0 0.00 0.01 0.01 88 1015.2
20260902175047 71 220 0.0 2.0 0.00 0.01 0.01 88 1015.2
20260902174543 71 57 2.0 3.0 0.00 0.01 0.01 87 1015.3
20260902174038 71 78 0.0 2.0 0.00 0.01 0.01 87 1015.3
20260902173538 71 36 0.0 2.0 0.00 0.01 0.01 87 1015.4
20260902173033 71 75 1.0 3.0 0.00 0.01 0.01 88 1015.6
20260902173008 71 86 0.0 3.0 0.00 0.01 0.01 88 1013.8
20260902172532 71 10 0.0 2.0 0.00 0.01 0.01 88 1015.7
20260902172028 71 269 0.0 2.0 0.00 0.01 0.01 88 1015.5
20260902171523 71 254 2.0 5.0 0.00 0.01 0.01 87 1015.6
20260902171019 71 340 0.0 3.0 0.00 0.01 0.01 88 1015.5
20260902170514 71 231 2.0 2.0 0.00 0.01 0.01 88 1015.3
20260902170011 71 247 4.0 4.0 0.00 0.01 0.01 88 1015.5
20260902170006 71 256 2.0 6.0 0.00 0.01 0.01 88 1013.7
20260902165510 71 63 2.0 6.0 0.00 0.01 0.01 88 1015.5
20260902165010 71 118 0.0 3.0 0.00 0.01 0.01 88 1015.5
20260902164506 71 255 2.0 3.0 0.00 0.01 0.01 89 1013.8
20260902164003 71 197 0.0 3.0 0.00 0.01 0.01 89 1015.1
20260902163459 71 248 4.0 4.0 0.00 0.01 0.01 88 1015.2
20260902163007 71 194 1.0 3.0 0.00 0.01 0.01 90 1013.3
20260902162957 71 92 0.0 2.0 0.00 0.01 0.01 89 1015.0
20260902162452 71 198 1.0 3.0 0.00 0.01 0.01 89 1014.9
20260902161953 71 240 2.0 3.0 0.00 0.01 0.01 90 1015.1
20260902161506 71 226 1.0 3.0 0.00 0.01 0.01 90 1013.2
20260902161448 71 142 1.0 5.0 0.00 0.01 0.01 89 1014.6
20260902160943 71 221 1.0 5.0 0.00 0.01 0.01 90 1014.9
20260902160439 71 14 0.0 2.0 0.00 0.01 0.01 90 1015.2
20260902160009 70 261 1.0 2.0 0.00 0.01 0.01 91 1013.6
20260902155937 71 289 2.0 2.0 0.00 0.01 0.01 90 1015.1
20260902155433 70 99 0.0 2.0 0.00 0.01 0.01 91 1015.5
20260902154926 70 67 0.0 2.0 0.00 0.01 0.01 91 1015.5
20260902154507 70 288 0.0 2.0 0.00 0.01 0.01 92 1013.7
20260902154422 70 8 0.0 2.0 0.00 0.01 0.01 91 1015.3
20260902153921 70 52 1.0 1.0 0.00 0.01 0.01 91 1015.4
20260902153420 70 322 0.0 2.0 0.00 0.01 0.01 91 1015.4
20260902153007 70 263 2.0 5.0 0.00 0.01 0.01 91 1013.7
20260902152915 70 221 0.0 4.0 0.02 0.01 0.01 91 1015.2
20260902152412 70 242 2.0 4.0 0.02 0.00 0.00 90 1015.0
20260902151907 71 242 6.0 6.0 0.02 0.00 0.00 89 1015.1
20260902151507 71 288 1.0 3.0 0.00 0.01 0.01 89 1013.3
20260902151403 71 306 1.0 4.0 0.00 0.00 0.00 89 1015.1
20260902150902 71 216 3.0 4.0 0.00 0.00 0.00 88 1015.1
20260902150359 71 227 1.0 3.0 0.00 0.00 0.00 88 1014.9
20260902150006 71 299 1.0 2.0 0.00 0.01 0.01 88 1013.3
20260902145858 71 271 2.0 2.0 0.00 0.00 0.00 88 1015.0
20260902145353 71 60 1.0 2.0 0.00 0.00 0.00 88 1015.1
20260902144848 71 248 2.0 3.0 0.00 0.00 0.00 88 1015.3
20260902144345 71 311 0.0 1.0 0.00 0.00 0.00 88 1015.3
20260902143844 71 230 2.0 3.0 0.00 0.00 0.00 88 1015.1
20260902143339 71 265 2.0 4.0 0.00 0.00 0.00 88 1015.1
20260902143007 71 237 1.0 3.0 0.00 0.01 0.01 88 1013.4
20260902142835 71 248 2.0 3.0 0.00 0.00 0.00 89 1015.2
20260902142331 71 260 1.0 2.0 0.00 0.00 0.00 88 1015.6
20260902141826 71 232 0.0 2.0 0.00 0.00 0.00 88 1015.8
20260902141322 71 226 4.0 6.0 0.00 0.00 0.00 87 1015.7
20260902140821 71 251 1.0 6.0 0.00 0.00 0.00 87 1015.8
20260902140317 71 295 1.0 3.0 0.00 0.00 0.00 88 1015.7
20260902140007 71 243 1.0 3.0 0.00 0.01 0.01 89 1013.8
20260902135815 71 82 1.0 1.0 0.00 0.00 0.00 89 1015.5
20260902135311 71 229 2.0 2.0 0.00 0.00 0.00 89 1015.5
20260902134810 71 229 0.0 1.0 0.00 0.00 0.00 89 1015.3
20260902134306 72 236 1.0 2.0 0.00 0.00 0.00 89 1015.4
20260902133801 72 111 0.0 1.0 0.00 0.00 0.00 88 1015.4
20260902133301 72 44 0.0 2.0 0.00 0.00 0.00 88 1015.1
20260902133007 72 210 0.0 1.0 0.00 0.01 0.01 89 1013.5
20260902132756 72 50 0.0 2.0 0.00 0.00 0.00 88 1015.3
20260902132251 72 84 0.0 1.0 0.00 0.00 0.00 88 1014.9
20260902131747 72 46 0.0 1.0 0.00 0.00 0.00 87 1015.0
20260902131507 72 210 0.0 1.0 0.00 0.01 0.01 88 1013.3
20260902131243 72 68 1.0 2.0 0.00 0.00 0.00 88 1015.0
20260902130743 72 7 1.0 2.0 0.00 0.00 0.00 88 1015.1
20260902130238 72 30 0.0 2.0 0.00 0.00 0.00 88 1015.0
20260902130006 72 210 0.0 1.0 0.00 0.01 0.01 89 1013.2
20260902125733 72 230 0.0 1.0 0.00 0.00 0.00 88 1015.0
20260902125230 72 286 0.0 1.0 0.00 0.00 0.00 89 1014.8
20260902124726 72 167 0.0 2.0 0.00 0.00 0.00 89 1014.5
20260902124506 71 133 1.0 2.0 0.00 0.04 0.01 91 1012.9
20260902124221 72 89 0.0 1.0 0.00 0.00 0.00 90 1014.6
20260902123717 71 45 0.0 1.0 0.00 0.00 0.00 90 1014.6
20260902123213 71 52 0.0 1.0 0.00 0.00 0.00 90 1014.7
20260902123006 71 276 1.0 2.0 0.00 0.05 0.01 92 1012.7
20260902122711 71 45 2.0 2.0 0.00 0.00 0.00 90 1014.5
20260902122207 71 259 0.0 2.0 0.00 0.00 0.00 91 1014.3
20260902121702 71 174 1.0 2.0 0.00 0.00 0.00 91 1014.2
20260902121506 70 317 0.0 2.0 0.00 0.05 0.01 93 1012.5
20260902121202 70 106 0.0 2.0 0.00 0.00 0.00 92 1014.2
20260902120658 70 103 0.0 1.0 0.00 0.00 0.00 92 1014.2
20260902120154 70 73 2.0 2.0 0.00 0.00 0.00 93 1014.4
20260902115654 70 80 0.0 2.0 0.00 0.00 0.00 93 1014.2
20260902115150 70 72 0.0 2.0 0.00 0.00 0.00 93 1014.2
20260902114646 70 49 0.0 2.0 0.00 0.00 0.00 93 1014.5
20260902114141 70 32 2.0 2.0 0.00 0.00 0.00 93 1014.4
20260902113637 70 85 0.0 2.0 0.00 0.00 0.00 93 1014.3
20260902113132 70 25 2.0 2.0 0.00 0.00 0.00 93 1014.4
20260902113007 70 271 0.0 1.0 0.00 0.05 0.01 95 1012.6
20260902112626 70 25 0.0 1.0 0.00 0.00 0.00 94 1014.5
20260902112124 69 80 1.0 2.0 0.00 0.00 0.00 93 1014.4
20260902111619 69 239 0.0 1.0 0.00 0.00 0.00 94 1014.4
20260902111506 69 251 1.0 3.0 0.00 0.05 0.01 95 1012.5
20260902111115 69 236 1.0 2.0 0.00 0.00 0.00 94 1014.2
20260902110605 69 34 0.0 2.0 0.00 0.00 0.00 94 1014.5
20260902110008 69 273 1.0 2.0 0.00 0.05 0.01 95 1012.5
20260902105600 69 65 1.0 2.0 0.00 0.00 0.00 94 1014.3
20260902105055 69 89 0.0 2.0 0.00 0.00 0.00 94 1014.5
20260902104551 69 45 2.0 2.0 0.00 0.00 0.00 94 1014.4
20260902104506 69 133 1.0 1.0 0.00 0.05 0.01 95 1012.6
20260902104050 69 31 2.0 3.0 0.00 0.00 0.00 94 1014.3
20260902103546 69 73 0.0 2.0 0.00 0.00 0.00 94 1014.5
20260902103041 69 29 1.0 2.0 0.00 0.00 0.00 94 1014.6
20260902103007 69 235 0.0 3.0 0.00 0.05 0.01 95 1012.6
20260902102537 69 229 2.0 3.0 0.00 0.00 0.00 94 1014.6
20260902102034 69 63 0.0 2.0 0.00 0.00 0.00 94 1014.6
20260902101529 69 58 0.0 1.0 0.00 0.00 0.00 94 1014.6
20260902101029 69 51 0.0 2.0 0.00 0.00 0.00 94 1014.4
20260902100529 69 77 0.0 2.0 0.00 0.00 0.00 94 1014.4
20260902100029 69 63 1.0 2.0 0.00 0.00 0.00 94 1014.4
20260902100007 69 259 0.0 1.0 0.00 0.05 0.01 96 1012.5
20260902095528 69 65 0.0 2.0 0.00 0.00 0.00 94 1014.2
20260902095027 69 276 0.0 1.0 0.00 0.00 0.00 94 1014.2
20260902094523 69 124 0.0 1.0 0.00 0.00 0.00 94 1014.2
20260902094506 69 257 0.0 3.0 0.00 0.05 0.01 96 1012.4
20260902094018 69 41 2.0 3.0 0.00 0.00 0.00 95 1014.1
20260902093513 69 69 0.0 3.0 0.00 0.00 0.00 95 1014.1
20260902093013 69 224 1.0 2.0 0.00 0.00 0.00 95 1014.2
20260902093007 69 257 1.0 3.0 0.00 0.05 0.01 96 1012.3
20260902092508 68 248 1.0 3.0 0.00 0.00 0.00 96 1014.2
20260902092003 68 56 1.0 2.0 0.00 0.00 0.00 96 1014.1
20260902091459 68 29 0.0 2.0 0.00 0.00 0.00 96 1014.1
20260902090954 68 4 0.0 2.0 0.00 0.00 0.00 96 1013.9
20260902090450 68 72 0.0 1.0 0.00 0.00 0.00 96 1013.9
20260902090006 68 244 0.0 1.0 0.00 0.06 0.01 96 1012.0
20260902085948 68 16 0.0 2.0 0.00 0.00 0.00 96 1014.0
20260902085444 68 67 1.0 2.0 0.00 0.00 0.00 96 1014.0
20260902084939 68 48 0.0 1.0 0.00 0.00 0.00 96 1014.0
20260902084506 68 244 0.0 1.0 0.00 0.06 0.01 96 1012.2
20260902084435 68 45 1.0 2.0 0.00 0.00 0.00 96 1014.1
20260902083931 68 65 0.0 2.0 0.00 0.00 0.00 96 1014.1
20260902083430 68 49 2.0 2.0 0.00 0.00 0.00 96 1014.1
20260902082925 68 59 0.0 2.0 0.00 0.00 0.00 96 1014.0
20260902082421 68 70 2.0 2.0 0.00 0.00 0.00 96 1014.0
20260902081918 68 54 0.0 2.0 0.00 0.00 0.00 96 1013.8
20260902081508 68 244 0.0 0.0 0.00 0.06 0.01 96 1012.0
20260902081414 68 89 0.0 2.0 0.00 0.00 0.00 96 1013.8
20260902080914 68 32 0.0 1.0 0.00 0.00 0.00 96 1013.9
20260902080410 68 40 0.0 2.0 0.00 0.00 0.00 96 1013.7
20260902080007 68 244 0.0 0.0 0.00 0.06 0.01 96 1011.9
20260902075909 68 53 0.0 2.0 0.00 0.00 0.00 95 1013.7
20260902075406 68 69 0.0 2.0 0.00 0.00 0.00 95 1013.7
20260902074901 68 14 0.0 2.0 0.00 0.00 0.00 95 1013.7
20260902074507 68 244 0.0 1.0 0.00 0.06 0.01 96 1011.7
20260902074356 68 29 0.0 2.0 0.00 0.00 0.00 95 1013.7
20260902073851 68 36 1.0 2.0 0.00 0.00 0.00 95 1013.8
20260902073347 68 42 2.0 2.0 0.00 0.00 0.00 95 1013.8
20260902073008 69 244 0.0 1.0 0.00 0.06 0.01 96 1011.8
20260902072843 68 37 0.0 2.0 0.00 0.00 0.00 95 1013.8
20260902072338 68 3 0.0 2.0 0.00 0.00 0.00 95 1013.8
20260902071835 68 255 0.0 2.0 0.00 0.00 0.00 95 1013.9
20260902071506 69 244 0.0 1.0 0.00 0.06 0.01 96 1011.8
20260902071329 69 48 0.0 1.0 0.00 0.00 0.00 95 1014.1
20260902070826 69 256 0.0 1.0 0.00 0.00 0.00 95 1013.7
20260902070326 69 89 0.0 1.0 0.00 0.00 0.00 95 1013.7
20260902070007 69 244 0.0 0.0 0.00 0.06 0.01 96 1011.8
20260902065824 69 36 0.0 1.0 0.00 0.00 0.00 95 1013.9
20260902065320 69 58 0.0 1.0 0.00 0.00 0.00 96 1013.9
20260902064815 69 64 1.0 2.0 0.00 0.00 0.00 96 1014.0
20260902064311 69 58 1.0 1.0 0.00 0.00 0.00 96 1013.8
20260902063806 69 51 1.0 1.0 0.00 0.00 0.00 96 1013.9
20260902063301 69 81 0.0 2.0 0.00 0.00 0.00 96 1013.8
20260902063008 69 284 0.0 1.0 0.00 0.06 0.01 97 1011.9
20260902062801 69 39 2.0 2.0 0.00 0.00 0.00 97 1013.9
20260902062255 69 322 0.0 2.0 0.00 0.00 0.00 97 1013.9
20260902061754 69 306 1.0 2.0 0.00 0.00 0.00 97 1013.8
20260902061507 70 115 0.0 1.0 0.00 0.06 0.01 98 1011.8
20260902061250 69 85 0.0 2.0 0.00 0.00 0.00 97 1013.9
20260902060747 69 78 1.0 2.0 0.00 0.00 0.00 97 1013.9
20260902060242 69 2 0.0 1.0 0.00 0.00 0.00 97 1013.9
20260902060007 70 271 0.0 1.0 0.01 0.06 0.01 98 1012.0
20260902055738 69 195 0.0 2.0 0.00 0.00 0.00 97 1014.1
20260902055235 69 84 0.0 1.0 0.00 0.00 0.00 97 1014.0
20260902054734 69 89 0.0 1.0 0.00 0.00 0.00 97 1014.0
20260902054506 70 271 0.0 1.0 0.01 0.06 0.01 98 1011.9
20260902054231 69 81 1.0 2.0 0.00 0.00 0.00 97 1013.8
20260902053726 70 67 2.0 2.0 0.00 0.00 0.00 97 1013.8
20260902053225 70 31 1.0 2.0 0.00 0.00 0.00 98 1013.9
20260902053007 70 271 0.0 0.0 0.01 0.06 0.01 98 1011.9
20260902052724 70 80 0.0 2.0 0.00 0.00 0.00 98 1013.9
20260902052220 70 76 0.0 2.0 0.00 0.00 0.00 98 1013.8
20260902051719 70 61 0.0 2.0 0.00 0.00 0.00 97 1014.0
20260902051506 70 271 0.0 1.0 0.01 0.06 0.01 98 1012.0
20260902051214 69 89 0.0 2.0 0.00 0.00 0.00 98 1013.9
20260902050709 69 86 2.0 2.0 0.00 0.00 0.00 97 1013.9
20260902050205 69 58 0.0 1.0 0.00 0.00 0.00 97 1013.9
20260902050008 70 271 0.0 1.0 0.00 0.05 0.00 97 1012.0
20260902045704 69 240 0.0 1.0 0.00 0.00 0.00 97 1013.9
20260902045201 70 80 0.0 2.0 0.00 0.00 0.00 97 1013.6
20260902044655 70 53 1.0 2.0 0.00 0.00 0.00 97 1013.7
20260902044152 70 36 0.0 2.0 0.00 0.00 0.00 97 1013.8
20260902043647 70 72 0.0 2.0 0.00 0.00 0.00 97 1014.0
20260902043142 70 53 1.0 1.0 0.00 0.00 0.00 97 1013.7
20260902043008 70 271 0.0 1.0 0.00 0.05 0.00 97 1011.9
20260902042641 70 64 0.0 2.0 0.00 0.00 0.00 97 1013.8
20260902042137 70 53 1.0 2.0 0.00 0.00 0.00 97 1013.7
20260902041636 70 117 0.0 2.0 0.00 0.00 0.00 97 1013.8
20260902041506 70 271 0.0 1.0 0.00 0.05 0.00 97 1011.8
20260902041131 70 122 0.0 0.0 0.00 0.00 0.00 97 1013.5
20260902040631 70 46 1.0 2.0 0.00 0.00 0.00 97 1013.5
20260902040126 70 67 1.0 2.0 0.00 0.00 0.00 97 1013.4
20260902040007 71 271 0.0 0.0 0.00 0.05 0.00 96 1011.5
20260902035624 70 66 0.0 2.0 0.00 0.06 0.06 97 1013.4
20260902035120 70 89 0.0 2.0 0.00 0.06 0.06 97 1013.4
20260902034619 70 101 1.0 2.0 0.00 0.06 0.06 97 1013.2
20260902034506 71 271 0.0 0.0 0.00 0.05 0.05 96 1011.4
20260902034119 70 83 1.0 1.0 0.00 0.06 0.06 97 1013.1
20260902033618 71 68 1.0 2.0 0.00 0.06 0.06 97 1013.1
20260902033113 71 69 0.0 2.0 0.00 0.06 0.06 97 1013.1
20260902033008 71 271 0.0 1.0 0.00 0.05 0.05 97 1011.3
20260902032611 71 40 0.0 1.0 0.00 0.06 0.06 97 1013.0
20260902032106 71 5 0.0 1.0 0.00 0.06 0.06 97 1013.0
20260902031601 71 55 0.0 1.0 0.00 0.06 0.06 97 1013.2
20260902031506 71 271 0.0 0.0 0.00 0.05 0.05 97 1011.2
20260902031057 71 59 1.0 1.0 0.00 0.06 0.06 97 1013.2
20260902030557 71 63 0.0 1.0 0.00 0.06 0.06 97 1013.1
20260902030051 71 51 2.0 2.0 0.00 0.06 0.06 97 1012.9
20260902030007 72 271 0.0 0.0 0.00 0.05 0.05 97 1011.1
20260902025551 71 58 0.0 2.0 0.00 0.06 0.06 97 1012.7
20260902025047 71 89 0.0 1.0 0.00 0.06 0.06 97 1012.9
20260902024542 71 89 0.0 2.0 0.00 0.06 0.06 97 1012.6
20260902024507 72 271 0.0 0.0 0.00 0.05 0.05 96 1011.0
20260902024037 71 55 0.0 2.0 0.00 0.06 0.06 97 1012.4
20260902023532 71 68 0.0 1.0 0.00 0.06 0.06 97 1012.5
20260902023027 71 58 0.0 1.0 0.00 0.06 0.06 97 1012.3
20260902023008 72 271 0.0 0.0 0.00 0.05 0.05 96 1010.7
20260902022521 71 339 0.0 1.0 0.00 0.06 0.06 96 1012.3
20260902022017 71 69 0.0 2.0 0.00 0.06 0.06 96 1012.3
20260902021512 71 48 0.0 2.0 0.00 0.06 0.06 96 1012.5
20260902021507 72 271 0.0 0.0 0.00 0.06 0.05 95 1010.5
20260902021007 72 99 0.0 2.0 0.00 0.06 0.06 96 1012.5
20260902020503 72 40 0.0 2.0 0.00 0.06 0.06 96 1012.5
20260902020007 73 271 0.0 0.0 0.00 0.06 0.05 95 1010.6
20260902015959 72 44 1.0 2.0 0.00 0.06 0.06 96 1012.3